SCP
1 1 1 1 1 1 1 1 1 0 0 0 0 0 0 0 0 0 0 0 0 0 0 1 0 0 0 0 0 0 0 0 0 0 0 0 0 0 0 0 0 0 0
1 1 1 1 1 1 1 1 1 0 0 0 0 0 0 0 0 0 0 0 0 0 0 0 0 0 0 0 0 0 0 0 0 0 0 0 0 0 0 0 0 0 0
1 1 1 1 1 1 1 1 0 0 0 0 0 0 0 0 0 0 0 0 0 0 0 0 0 0 0 0 0 0 0 0 0 0 0 0 0 0 0 0 0 0 0
1 1 1 1 1 1 1 0 0 0 0 0 0 0 0 0 0 0 0 0 0 0 0 0 0 0 0 0 0 0 0 0 0 0 0 0 0 0 0 0 0 0 0
1 1 1 1 1 1 1 0 0 0 0 0 0 0 0 0 0 0 0 0 0 0 0 0 0 0 0 0 0 0 0 0 0 0 0 0 0 0 0 0 0 0 0
1 1 1 1 1 1 0 0 0 0 0 0 0 0 0 0 0 0 0 0 0 0 0 0 0 0 0 0 0 0 0 0 0 0 0 0 0 0 0 0 0 0 0
1 1 1 1 1 1 0 0 0 0 0 0 0 0 0 0 0 0 0 0 0 0 0 0 0 0 0 0 0 0 0 0 0 0 0 0 0 0 0 0 0 0 0
1 1 1 1 1 1 1 0 0 0 0 0 0 0 1 1 0 0 0 0 0 0 0 0 0 0 0 0 0 0 0 0 0 0 0 0 0 0 0 0 0 0 0
2 1 1 1 1 1 1 1 0 0 0 0 0 0 0 0 0 0 0 0 0 0 0 0 0 0 0 0 0 0 0 0 0 0 0 0 0 0 0 0 0 0 0
2 2 1 1 1 1 1 1 1 0 0 0 0 0 0 0 0 0 0 0 0 0 0 0 0 0 0 0 0 0 0 0 0 0 0 0 0 0 0 0 0 0 0
2 2 1 1 1 1 1 1 1 1 0 0 0 0 0 0 0 0 0 0 0 0 0 0 0 0 0 0 0 0 0 0 0 0 0 0 0 0 0 0 0 0 0
1 1 1 1 1 1 1 1 1 1 1 0 0 0 0 0 0 0 0 0 0 0 0 0 0 0 0 0 0 0 0 0 0 0 0 0 0 0 0 0 0 0 0
1 1 1 1 1 1 1 1 1 1 1 1 0 0 0 0 0 0 0 0 0 0 0 0 0 0 0 0 0 0 0 0 0 0 0 0 0 0 0 0 0 0 0
1 1 1 1 1 1 1 1 1 1 1 1 0 0 0 0 0 0 0 0 0 0 0 0 0 0 0 0 0 0 0 0 0 0 0 0 0 0 0 0 0 0 0
1 1 1 1 1 1 1 1 1 0 1 1 0 0 0 0 0 0 0 0 0 0 0 0 0 0 0 0 0 0 0 0 0 0 0 0 0 0 0 0 0 0 0
0 1 1 1 1 1 1 0 0 0 1 1 1 0 0 0 0 0 0 0 0 0 0 0 0 0 0 0 0 0 0 0 0 0 0 0 0 0 0 0 0 0 0
0 0 1 1 1 1 0 0 0 0 1 1 1 0 0 0 0 0 0 0 0 0 0 0 0 0 0 0 0 0 0 0 0 0 0 0 0 0 0 0 0 0 0
0 0 0 0 0 0 0 0 0 0 0 0 0 0 0 0 0 0 0 0 0 0 0 0 0 0 0 0 0 0 0 0 0 0 0 0 0 0 0 0 0 0 0
0 0 0 0 0 0 0 0 0 0 0 0 0 0 0 0 0 0 0 0 0 0 0 0 0 0 0 0 0 0 0 0 0 0 0 0 0 0 0 0 0 0 0
0 0 0 0 0 0 0 0 0 0 0 0 0 0 0 0 0 0 0 0 0 0 0 0 0 0 0 0 0 0 0 0 0 0 0 0 0 0 0 0 0 0 0
0 0 0 0 0 0 0 0 0 0 0 0 0 0 0 0 0 0 0 0 0 0 0 0 0 0 0 0 0 0 0 0 0 0 0 0 0 0 0 0 0 0 0
0 0 0 0 0 0 0 0 0 0 0 0 0 0 0 0 0 0 0 0 0 0 0 0 0 0 0 0 0 0 0 0 0 0 0 0 0 0 0 0 0 0 0
0 0 0 0 0 0 0 0 0 0 0 0 0 0 0 0 0 0 0 0 0 0 0 0 0 0 0 0 0 0 0 0 0 0 0 0 0 0 0 0 0 0 0
0 0 0 0 0 0 0 0 0 0 0 0 0 0 0 0 0 0 0 0 0 0 0 0 0 0 0 0 0 0 0 0 0 0 0 0 0 0 0 0 0 0 0
0 0 0 0 0 0 0 0 0 0 0 0 0 0 0 0 0 0 0 0 0 0 0 0 0 0 0 0 0 0 0 0 0 0 0 0 0 0 0 0 0 0 0
0 0 0 0 0 0 0 0 0 0 0 0 0 0 0 0 0 0 0 0 0 0 0 0 0 0 0 0 0 0 0 0 0 0 0 0 0 0 0 0 0 0 0
Wind_Speed
5 5 4 4 5 5 6 6 6 7 8 8 7 7 6 5 5 3 2 6 7 8 9 9 9 9 8 7 6 5 4 3 2 1 1 2 3 4 5 6 7 8 9
6 6 5 5 5 6 6 7 8 7 7 7 7 7 7 6 5 4 3 4 7 8 9 9 9 9 9 8 6 5 4 3 2 1 1 2 3 4 5 7 8 8 9
6 6 6 6 6 6 7 6 7 5 6 7 7 7 6 6 5 5 4 3 3 5 8 9 9 9 9 8 7 6 5 4 3 2 2 3 4 5 6 7 8 9 9
6 6 6 6 6 6 7 7 7 6 6 7 6 6 5 5 6 5 4 3 3 2 4 7 8 9 8 8 7 6 5 4 4 3 4 4 5 6 7 7 8 9 10
7 6 6 6 7 6 6 8 7 7 7 7 6 5 5 5 5 5 5 5 4 3 3 4 6 7 8 8 7 7 6 5 5 5 5 5 6 7 7 8 9 10 10
8 7 6 7 7 6 6 7 8 7 6 7 6 5 4 4 4 5 6 5 4 5 4 3 3 3 6 7 7 7 7 6 6 6 6 6 7 7 8 8 9 10 11
8 7 6 7 8 8 8 9 7 8 6 6 5 3 1 2 4 4 4 4 5 5 5 4 3 3 2 5 7 7 7 7 7 7 6 7 7 8 8 9 10 10 11
8 8 8 8 8 7 9 9 8 7 5 7 6 6 3 2 3 4 4 5 6 4 5 5 5 4 3 2 4 6 7 8 8 7 7 7 8 8 9 9 10 11 11
8 8 10 9 9 9 9 10 11 10 8 6 6 7 6 6 3 3 5 5 5 5 5 4 5 5 5 3 3 5 6 8 8 8 7 7 8 8 9 9 10 10 11
8 8 9 10 10 9 9 10 10 9 11 9 6 3 3 5 5 3 2 3 5 6 6 5 5 5 5 4 4 6 7 7 7 7 7 7 8 8 9 9 10 10 11
7 9 9 9 9 8 9 10 10 11 9 9 7 5 3 2 3 4 4 4 3 4 5 5 4 4 5 4 4 6 7 6 6 6 6 7 8 8 9 9 9 10 10
6 9 9 9 10 9 10 10 10 12 10 9 7 6 6 5 5 4 5 5 4 3 3 3 4 4 4 4 5 7 7 6 5 5 5 6 7 8 8 9 9 9 10
6 9 9 9 9 9 10 10 10 11 12 12 10 8 6 5 4 4 4 4 3 1 1 2 3 4 4 4 4 7 6 6 4 4 4 4 5 6 7 8 9 9 10
8 9 9 9 10 10 11 10 9 10 11 11 11 10 6 6 5 5 5 5 4 1 1 3 2 4 4 4 5 7 4 5 5 4 3 3 4 4 6 7 8 8 9
6 9 9 9 9 10 11 11 8 10 11 11 11 11 8 6 6 5 5 6 6 5 5 4 3 3 4 3 5 4 3 5 4 3 3 3 3 4 4 5 6 7 8
7 7 9 9 9 10 11 10 9 9 11 10 9 11 9 6 6 5 6 5 4 5 4 3 3 2 3 4 6 4 4 5 4 3 3 2 2 2 3 4 6 7 8
8 8 9 9 9 10 10 10 10 10 12 11 10 11 11 8 7 6 5 5 4 4 4 2 2 2 3 4 3 3 3 2 2 3 2 2 1 1 2 4 5 6 7
7 8 9 9 9 9 10 11 11 11 12 12 11 11 11 9 9 7 7 6 5 5 5 5 2 2 3 4 4 3 2 2 1 2 2 1 0 1 2 3 4 5 7
7 8 8 9 9 9 9 11 11 11 11 12 12 12 12 11 10 8 8 7 5 5 4 5 4 2 2 3 3 2 2 1 1 1 1 0 0 1 2 3 4 5 6
6 8 8 8 8 9 9 9 10 10 10 10 10 11 11 12 12 10 8 8 7 6 5 5 4 3 3 3 3 3 2 1 1 1 1 1 1 2 2 3 4 5 6
6 7 7 7 8 8 8 8 9 9 10 9 9 9 10 12 13 11 8 9 9 7 6 5 4 3 3 4 4 3 3 2 1 1 0 0 1 1 1 3 4 5 6
5 5 7 7 8 7 8 10 10 9 9 10 9 8 9 11 13 14 13 13 12 10 8 6 5 5 5 5 4 4 4 3 1 1 1 0 0 0 1 1 4 5 6
5 5 6 7 8 8 10 11 12 9 9 9 9 9 7 8 11 9 10 11 10 10 11 9 8 7 7 7 7 5 4 3 2 1 1 0 0 1 1 2 4 5 6
4 5 5 6 6 7 10 10 11 9 8 8 9 10 9 9 10 10 9 7 6 5 7 6 6 6 6 7 7 6 6 5 3 1 1 1 0 1 2 2 4 5 7
5 4 4 5 6 7 9 10 9 7 7 7 8 9 10 9 13 15 11 9 7 5 6 10 10 9 11 12 10 7 6 4 2 1 1 1 0 1 1 1 3 6 7
5 3 3 4 5 6 9 9 8 6 7 6 6 7 11 12 15 16 12 11 10 7 8 8 8 9 8 9 10 6 6 5 3 2 1 2 1 1 1 2 2 3 4
Wind_Direction
198 192 187 187 190 178 173 169 168 167 162 160 161 163 166 169 171 175 191 196 192 191 185 181 183 184 181 174 170 171 172 167 164 127 13 355 349 344 341 341 341 340 340
198 197 190 188 191 183 177 175 173 173 171 166 167 169 171 172 176 178 183 197 199 199 196 193 194 191 185 182 181 185 190 194 207 246 300 319 322 325 330 331 332 333 333
202 199 193 191 191 184 175 171 170 169 171 168 170 171 172 176 177 183 182 184 195 202 204 203 199 198 194 193 195 199 204 212 225 249 281 296 304 312 319 323 324 327 328
208 202 199 193 186 182 179 175 173 172 176 173 171 175 176 176 181 185 181 182 185 192 205 207 206 205 204 204 208 211 212 220 232 249 268 284 296 305 310 315 318 321 323
208 206 207 195 182 182 186 183 177 173 175 176 173 173 175 181 184 184 186 188 189 186 191 207 208 211 214 215 219 221 222 229 240 253 266 279 290 298 304 310 315 317 319
215 207 208 196 182 182 188 186 178 174 175 169 166 165 173 183 185 189 193 189 190 191 189 193 195 212 217 222 227 229 232 237 246 257 270 278 286 295 302 307 311 314 317
220 208 211 198 188 190 191 187 179 174 171 154 142 146 141 184 198 197 193 189 194 193 187 190 189 190 210 224 231 236 243 248 252 259 269 279 287 294 300 305 309 313 317
222 216 209 201 194 193 190 189 176 169 172 169 157 149 164 201 225 205 193 197 198 188 193 196 190 192 191 195 222 234 248 256 262 267 274 283 290 297 303 307 310 315 317
222 217 213 204 197 194 195 192 185 176 176 184 176 163 166 192 179 206 204 201 195 193 197 193 196 196 193 191 204 229 240 251 261 271 278 285 291 297 304 307 312 315 318
222 215 211 207 200 198 198 195 195 185 175 181 184 195 170 152 158 176 208 203 199 201 199 197 196 196 191 190 203 218 232 245 255 266 276 285 294 299 304 310 314 318 320
224 220 211 206 200 198 199 198 197 190 184 183 181 169 162 147 146 156 183 194 205 210 201 198 194 194 191 190 196 215 226 236 250 263 275 286 295 301 307 313 318 321 323
227 221 213 207 202 197 197 198 200 195 191 187 185 177 170 166 172 167 176 184 198 209 198 192 194 195 192 191 201 208 215 228 245 262 276 287 296 304 310 313 317 320 321
234 220 210 207 203 201 200 198 198 199 194 189 190 188 187 184 161 159 156 164 171 186 185 203 201 192 192 187 198 199 210 219 233 255 272 290 303 309 311 315 318 320 321
228 216 210 208 207 203 201 198 198 201 195 193 195 189 186 187 178 173 163 157 159 181 206 214 189 195 189 183 189 186 201 212 222 236 263 286 298 306 311 317 320 324 325
226 217 209 208 208 207 202 195 200 204 194 192 194 191 190 189 187 182 170 167 166 182 211 201 187 189 185 177 180 173 180 202 206 220 248 273 286 299 310 323 326 328 328
223 217 211 208 207 206 201 198 199 203 195 193 190 190 193 189 185 181 175 173 175 175 195 190 182 167 173 171 179 168 181 187 198 222 242 262 285 300 321 331 330 328 329
223 214 214 208 206 204 198 197 201 198 195 192 190 192 193 183 180 181 174 170 174 167 184 185 141 142 156 166 156 150 158 169 191 216 225 239 271 306 327 332 328 327 330
229 216 210 208 206 204 200 197 200 198 195 192 191 192 192 184 183 180 179 180 181 177 172 179 160 158 164 167 153 157 158 155 159 190 199 216 218 316 331 330 330 332 335
230 214 206 209 208 206 202 200 199 197 196 193 190 192 191 182 185 182 180 180 179 173 169 164 163 150 144 145 141 141 132 120 113 124 135 141 28 8 345 337 336 337 338
232 213 205 207 210 208 204 202 197 196 196 193 191 192 191 187 185 182 181 180 172 166 158 154 153 148 142 138 143 153 153 126 92 58 47 49 50 36 4 352 348 344 339
244 224 206 207 208 205 203 198 194 194 191 190 190 192 191 188 183 181 179 177 171 170 163 162 161 152 159 160 176 161 156 129 102 82 67 25 49 23 359 350 346 340 341
249 229 207 204 208 213 204 200 192 189 189 188 186 187 186 183 181 179 178 175 174 173 175 173 174 177 183 173 153 148 139 136 192 161 117 278 90 311 320 312 329 341 343
250 235 216 207 208 206 198 194 188 186 188 189 185 183 183 182 174 172 171 167 171 174 176 175 176 182 175 173 158 152 154 150 166 159 120 219 349 289 309 328 338 344 349
259 238 223 207 202 200 193 189 181 181 187 189 187 183 179 176 174 164 159 157 159 170 175 171 169 169 162 157 159 152 141 115 91 70 91 136 321 304 327 326 341 356 354
268 239 207 201 199 199 190 182 177 175 181 187 186 181 176 176 168 157 154 154 152 145 127 131 130 130 133 135 134 122 125 121 126 154 82 111 98 321 314 309 330 353 354
265 238 218 198 198 198 189 182 175 175 178 179 177 177 176 173 166 161 162 161 162 160 143 130 119 112 115 124 127 138 147 140 135 161 170 119 113 60 335 310 319 332 342